Showing default

YIJIAN, 41899

Orbit data source: Space-Track

YIJIAN, 41899 is a payload satellite owned by SECM (CN) in SSO that was launched on Wed, 21 Dec 2016 UTC via a CHANG ZHENG 2D launch vehicle from the Jiuquan Satellite Launch Center, China (JSC). Payloads include a variety of satellites, spacecraft, and rockets equipped with specific instruments for various scientific and technological missions. These include communications satellites like Starlink; space stations such as the ISS; scientific satellites like the Hubble; Earth observation satellites from companies like Planet Labs, Umbra, and HawkEye 360; GPS; miniature CubeSats for education and research; and military/defense satellites.

Loading next visibility...
YIJIAN details
Identifier
41899, 2016-081B
Orbit
SSO
Last TLE update15 hours ago
Origin
Flag of CNSECM (CN / PRC)
ManufacturerSECM
MissionOperational Civil Imaging
Bus & MotorCX-6, Unknown motor
Mass60 kg wet, 60 kg dry
Launch date (UTC)
2016-12-21 (8 years ago)
Launch vehicle
CHANG ZHENG 2D
Launch site
Jiuquan Satellite Launch Center, China (JSC)
Object type
Payload
Rocket body
Debris
Shape & HBRBox + 2 Pan, 1 m
Radar Cross Section0.388 m², Medium (>0.1 m² and < 1m²)

Expand to show TLE details & history

TLE from 15 hours ago
0 YIJIAN
1 41899U 16081B   24360.87939436  .00002180  00000-0  46922-3 0  9998
2 41899  98.4891 332.9552 0021356 170.0453 190.1173 14.59418129426039
Epoch: 2024-12-25T21:06Z
Definitive object data (Epoch: 2024-12-25T21:06:19.672Z)
Latitude-0.00005°
Longitude-78.49357°
Altitude712.903 km
Speed7.491 km/s
True Right ascension22h 11m 49s
True Declination0° 00' 00"
Sunlit
Object was in daylight at TLE epoch
Visualization TLE readout
Latitude63.58672°
Longitude-95.24075°
Altitude709.414 km
Speed7.505 km/s
Apparent Right ascension22h 36m 09s
Apparent Declination16° 24' 18"
Sunlit
Object is in daylight
Visualization observer readout
Local Sidereal Time11:34:08
Azimuth16.464° NNE
Elevation-32.081°
Doppler factor1
Orbital elements
Apogee altitude707.248 km
Perigee altitude677.05 km
Semi-major axis7,070.286 km
Eccentricity0.0021356
Inclination98.4891°
RAAN332.9552°
Arg. of periapsis170.0453°
True anomaly190.07442°
Mean anomaly190.1173°
Eccentric anomaly190.09585°
Mean motion3.6508 °/min
BSTAR0.00046922
Orbital period98.61 mins
Loading maneuver chart data...
Loading historical data...
Loading historical data...
Loading historical data...
Loading historical data...
Loading historical data...
Loading historical data...
Loading historical data...
Other satellites on launch #81 in the year 2016 (2016-12-21 UTC)

YIJIAN Visibility forecast

Observer location: undefined°, undefined

Span
Click to sort rows by Start time (UTC) header in descending order
Start Az.
Max El. time (UTC)
Max El. Az.
Max El.
End time (UTC)
End Az.
5 mins2024-12-26 12:29:39.927Z328.414° NNW2024-12-26 12:31:39.927Z299.285° NW16.926°2024-12-26 12:34:39.927Z256.691° W
7 mins2024-12-26 21:55:39.927Z138.633° SSE2024-12-26 21:58:39.927Z74.036° E37.018°2024-12-26 22:02:39.927Z0.364° NNE
4 mins2024-12-26 23:34:39.927Z240.675° WSW2024-12-26 23:36:39.927Z269.697° W15.892°2024-12-26 23:38:39.927Z297.718° NW
8 mins2024-12-27 11:31:39.927Z4.608° NNE2024-12-27 11:34:39.927Z320.295° NNW41.123°2024-12-27 11:39:39.927Z205.071° SW
|